This is the latest recevied weather packets stored in our database for station/object KI5RAB. If no packets are shown the sender has not sent any weather packets the latest 1 day(s).
| Time | Temp. | Humidity | Pressure | Rain* | Wind** | Luminosity | Snow |
|---|---|---|---|---|---|---|---|
| 1777990100 | 21.67° C | 93% | 1012.2 hPa | 0 mm | 0 m/s | 57 W/m² | - |
| 1777989796 | 21.11° C | 94% | 1012.2 hPa | 0 mm | 0 m/s | 55 W/m² | - |
| 1777989494 | 21.11° C | 94% | 1012.2 hPa | 0 mm | 0.45 m/s, 279° | 52 W/m² | - |
| 1777989189 | 21.11° C | 94% | 1012.3 hPa | 0 mm | 0 m/s | 45 W/m² | - |
| 1777988886 | 21.11° C | 94% | 1012.2 hPa | 0 mm | 0.45 m/s, 242° | 45 W/m² | - |
| 1777988583 | 21.11° C | 94% | 1012.1 hPa | 0 mm | 0.89 m/s, 259° | 40 W/m² | - |
| 1777988280 | 21.11° C | 94% | 1012.3 hPa | 0 mm | 0 m/s | 33 W/m² | - |
| 1777987977 | 21.11° C | 93% | 1012.1 hPa | 0 mm | 0.45 m/s, 275° | 35 W/m² | - |
| 1777987672 | 21.11° C | 93% | 1012.1 hPa | 0 mm | 0 m/s | 25 W/m² | - |
| 1777987369 | 21.11° C | 93% | 1012.2 hPa | 0 mm | 0.45 m/s, 289° | 31 W/m² | - |
| 1777987067 | 21.11° C | 93% | 1012.1 hPa | 0 mm | 0.45 m/s, 282° | 23 W/m² | - |
| 1777986764 | 21.11° C | 93% | 1012.1 hPa | 0 mm | 0 m/s | 20 W/m² | - |
| 1777986462 | 21.11° C | 93% | 1011.9 hPa | 0 mm | 0 m/s | 15 W/m² | - |
| 1777986160 | 21.11° C | 93% | 1012 hPa | 0 mm | 0 m/s | 17 W/m² | - |
| 1777985857 | 20.56° C | 93% | 1011.9 hPa | 0 mm | 0 m/s | 13 W/m² | - |
| 1777985554 | 20.56° C | 93% | 1012 hPa | 0 mm | 1.79 m/s, 46° | 13 W/m² | - |
| 1777985250 | 20.56° C | 93% | 1012.1 hPa | 0 mm | 0.45 m/s, 263° | 9 W/m² | - |
| 1777984947 | 20.56° C | 93% | 1011.9 hPa | 0 mm | 0 m/s | 8 W/m² | - |
| 1777984643 | 20.56° C | 93% | 1011.8 hPa | 0 mm | 0 m/s | 7 W/m² | - |
| 1777984340 | 20.56° C | 93% | 1011.6 hPa | 0 mm | 0.45 m/s, 274° | 6 W/m² | - |
| 1777984036 | 20.56° C | 93% | 1011.5 hPa | 0 mm | 0.45 m/s, 300° | 6 W/m² | - |
| 1777983734 | 20.56° C | 92% | 1011.3 hPa | 0 mm | 0.45 m/s, 317° | 5 W/m² | - |
| 1777983430 | 20.56° C | 92% | 1011.2 hPa | 0 mm | 0 m/s | 5 W/m² | - |
| 1777983127 | 21.11° C | 92% | 1011.2 hPa | 0 mm | 0 m/s | 3 W/m² | - |
| 1777982823 | 20.56° C | 92% | 1011.1 hPa | 0 mm | 0 m/s | 2 W/m² | - |
* Rain latest hour (hover to see other rain measurements)
** Current wind speed in m/s (hover to see current wind gust speed)